Тетри-Цкаро

Грузия     41°32′38″N   44°27′44″E
темп.,
°C
ветер,
м/с
пор.,
м/с
влажн.,
%
обл.,
%
осадки,
мм/ч
давл.,
гПа
погр.,
м
13 апреля, вт
вт1301:00+8ссз2285100 3.3 1020147
04:00+8ссв1289100 6.5 1019163
07:00+8всв2394100 0.9 1020312
10:00+8в2597100 1.6 1021620
13:00+9всв2392100 0.7 1020409
16:00+9всв2388100 1.4 1018353
19:00+8з2290100 2.0 1018146
22:00+7з118588 2.1 101924
14 апреля, ср
ср1401:00+7сз1285100 0.1 101846
04:00+7всв0191100 1.1 101715
07:00+7с1188100 1.6 101833
10:00+10сз1270100 1.8 1017656
13:00+14юв235490 0.3 10151354
16:00+16вюв244163 0.9 10131703
19:00+12ююв23683 0.3 101468
22:00+9сз22733 0.3 101722
15 апреля, чт
чт1501:00+7зсз22705 0.0 101724
04:00+6сз22610 0.0 101818
07:00+6сз22578 0.0 101814
10:00+12вюв21472 0.0 1017464
13:00+16вюв32437 0.0 1016865
16:00+17в324157 0.0 10141250
19:00+14ююв1155100 0.1 101511
22:00
16 апреля, пт
пт1601:00+10сз226197 0.0 101619
04:00+9ссз116424 0.0 101712
07:00+8ссз117066 0.0 101811
10:00+14вюв22556 0.0 1017629
13:00+16вюв335013 0.1 10161070
16:00+17юв445272 0.4 10141310
19:00+13всв127345 0.7 101788
22:00+11зсз228196 1.4 101716
17 апреля, сб
сб1701:00+9с118446 0.0 101910
04:00+8сз22875 0.0 101911
07:00+9зсз2284100 0.0 101923
10:00+14в1163100 0.0 1018665
13:00+18вюв3254100 0.0 10161124
16:00+18св2251100 0.3 10151407
19:00+14сз227093 0.1 101665
22:00+13сз2272100 0.1 101641